Regional Weather Roundup
Issued by NWS Sterling, VA

Home | Current Version | Previous Version | Text Only | Print | Product List | Glossary Off
Versions: 1 2 3 4 5 6 7 8 9 10 11 12 13 14 15 16 17 18 19 20 21 22 23 24 25 26 27 28 29 30 31 32 33 34 35 36 37 38 39 40 41 42 43 44 45 46 47 48 49 50

326
ASUS41 KLWX 081410
RWRLWX

REGIONAL WEATHER ROUNDUP
NATIONAL WEATHER SERVICE BALTIMORE MD/WASHINGTON DC
900 AM EST MON FEB 08 2016

Note: "FAIR" indicates few or no clouds below 12,000 feet
with no significant weather and/or obstructions to visibility.
 TC=TEMPERATURE CELSIUS

 * =Non NWS site. Station does not report precipitation (e.g. rain,
    snow, etc.), thunder, or fog.

DCZ001-MDZ009-015-VAZ040>042-051-053>054-081500-
WASHINGTON METRO

CITY           SKY/WX    TMP DP  RH WIND       PRES   REMARKS
WASHINGTON NAT PTSUNNY   40  22  48 NE13      29.82F
DULLES         PTSUNNY   38  23  55 NE7       29.80F
ANDREWS AFB    SUNNY     39  22  50 N12       29.79F
FT BELVOIR     FAIR      40  21  45 VRB3      29.80F
QUANTICO       FAIR      39  25  57 NE8       29.82F
COLLEGE PARK*  FAIR      37  23  56 NE5       29.81F
LEESBURG*      FAIR      36  28  75 CALM      29.81S
MANASSAS*      SUNNY    N/A N/A N/A CALM      29.81F
GAITHERSBURG*  SUNNY     37  19  48 NE3       29.83F

$$

MDZ006>007-011-014-081500-
BALTIMORE METRO

CITY           SKY/WX    TMP DP  RH WIND       PRES   REMARKS
BWI AIRPORT    PTSUNNY   39  21  48 VRB6      29.81S
MD SCIENCE CTR   N/A     39  22  50 MISG      29.83R
MARTIN STATE   PTSUNNY   37  25  60 NW8       29.84R
ANNAPOLIS        N/A    N/A N/A N/A MISG      29.81S
FORT MEADE*    SUNNY     36  23  60 N6        29.83F

$$

MDZ012-015-019>023-081500-
MARYLAND EASTERN SHORE

CITY           SKY/WX    TMP DP  RH WIND       PRES   REMARKS
OCEAN CITY     CLOUDY    39  33  79 N13       29.75R
SALISBURY      CLOUDY    39  28  64 NW10      29.77R
BAY BRIDGE AP*   N/A     37  27  65 N7        29.81S
CAMBRIDGE*     CLOUDY    36  27  69 NW8G16    29.79R
EASTON*        CLOUDY    37  27  65 N8        29.83R

$$

MDZ017>025-081500-
SOUTHERN MARYLAND

CITY           SKY/WX    TMP DP  RH WIND       PRES   REMARKS
PATUXENT RIVER MOSUNNY   39  24  55 N8        29.80S
ST INIGOES     SUNNY     40  25  55 VRB7      29.79S
LEONARDTOWN*   SUNNY     37  23  56 NW3       29.81S

$$

MDZ003>005-081500-
NORTH CENTRAL MARYLAND

CITY           SKY/WX    TMP DP  RH WIND       PRES   REMARKS
FREDERICK*     SUNNY     28  28 100 CALM      29.84F
HAGERSTOWN APT MOSUNNY   28  22  78 W5        29.79S
WESTMINSTER*   SUNNY     34  28  80 NE3       29.79S

$$

MDZ501>502-081500-
WESTERN MARYLAND

CITY           SKY/WX    TMP DP  RH WIND       PRES   REMARKS
OAKLAND*       MOSUNNY   30  21  69 SE12      29.66S WCI  21
CUMBERLAND*    MOSUNNY   28  28 100 CALM      29.83S

$$

VAZ025>031-081500-
SHENANDOAH VALLEY

CITY           SKY/WX    TMP DP  RH WIND       PRES   REMARKS
WINCHESTER*    FAIR      32  28  86 W3        29.78F
FRONT ROYAL*   FAIR      30  27  86 CALM      29.79R
LURAY*         FAIR      28  28 100 CALM      29.79S
NEW MARKET*    FAIR      30  25  81 CALM      29.78F
STAUNTON*      FAIR      32  29  87 CALM      29.80R
WAYNESBORO*    FAIR      30  25  81 CALM      29.76R

$$

WVZ021-048>050-054>055-081500-
EASTERN WEST VIRGINIA PANHANDLE

CITY           SKY/WX    TMP DP  RH WIND       PRES   REMARKS
MARTINSBURG    FAIR      29  24  82 CALM      29.79F
PETERSBURG*    FAIR      28  25  91 CALM      29.77S

$$

VAZ036>039-050-081500-
CENTRAL FOOTHILLS

CITY           SKY/WX    TMP DP  RH WIND       PRES   REMARKS
CHARLOTTESVILL FAIR      34  26  72 CALM      29.79F
CULPEPER*      FAIR      32  27  82 CALM      29.81S
ORANGE*        FAIR      37  28  70 CALM      29.80F
GORDONSVILLE*  FAIR      38  28  68 CALM      29.79F
WARRENTON*     FAIR      37  27  69 CALM      29.80R

$$

VAZ055>057-081500-
NORTH AND CENTRAL PIEDMONT

CITY           SKY/WX    TMP DP  RH WIND       PRES   REMARKS
FREDERICKSBRG* FAIR      38  24  57 CALM      29.80F
STAFFORD*      FAIR      39  21  49 NE6       29.84S

$$

NCZ024-NYZ072-PAZ021-071-VAZ022-071-081500-
OTHER REGIONAL OBSERVATIONS

CITY           SKY/WX    TMP DP  RH WIND       PRES   REMARKS
NEW YORK CITY  CLOUDY    37  23  56 NE13G25   29.79F WCI  29
PHILADELPHIA   CLOUDY    39  26  59 N14       29.79R
PITTSBURGH     CLOUDY    36  23  59 SE7       29.65F
ROANOKE        PTSUNNY   31  25  78 CALM      29.76F
RICHMOND       FAIR      39  23  52 NE9       29.79F
RALEIGH        MOSUNNY   36  28  73 SW3       29.84R

$$

ANZ530>537-081500-
MARINE OBSERVATIONS

STATION/POSITION TIME  TEMP    WIND        PRES
                       AIR SEA DIR/SP/G
                 (UTC) (F)     (DEG/KT/KT) (MB)
THOMAS PT LIGHT  1400   37 38  360/ 10/ 12 1009.9R
BALT KEY BRIDGE  1300   37     320/  9/ 10 1009.7R
COVE POINT       1300   38      10/ 12/ 18 1009.7R
LEWISETTA        1300   39 41  340/  9/ 13 1008.7R
SOLOMONS ISLAND  1300   37 41  330/  8/ 12   N/A

$$





USA.gov is the U.S. government's official web portal to all federal, state and local government web resources and services.